contact:dominique.lefevre@mio.osupytheas.fr, maurice.libes@osupytheas.fr, didier.mallarino@osupytheas.fr
Project:EMSO http://www.emso-fr.org/EMSO-France
Depth: 2436.0 m
Title:EMSO Ligure Ouest : Data MII capteur AQUADOPP
Date,Latitude,Longitude,X_East,Y_North,Z_Up,Amplitude_X,Amplitude_Y,Amplitude_Z,Batterie,SoundSpeed,Heading,Pitch,Roll,Pressure,TIS,Speed,Direction
, degrees North, degrees East, m.s-1, m.s-1,m.s-1, 1, 1, 1, Volt, m.s-1, degree, degree, degree, dbar, degree_C, m.s-1, degree
2020-03-19T00:04:03,42.805,6.029,-0.025,0.014,-0.037,101.0,103.0,99.0,13.4,1505.3,324.9,-0.7,1.8,2470.311,13.31,0.028,299.3
2020-03-19T00:07:03,42.805,6.029,0.054,0.033,0.042,99.0,105.0,100.0,13.4,1505.3,322.7,-0.7,1.8,2470.335,13.32,0.063,58.6
2020-03-19T00:10:03,42.805,6.029,-0.025,0.011,-0.066,100.0,104.0,99.0,13.4,1505.3,327.4,-0.7,1.8,2470.304,13.32,0.027,293.7
2020-03-19T00:13:03,42.805,6.029,0.024,0.01,-0.019,103.0,104.0,99.0,13.4,1505.3,326.2,-0.7,1.8,2470.258,13.32,0.026,67.4
2020-03-19T00:16:03,42.805,6.029,0.002,0.018,-0.034,100.0,105.0,98.0,13.4,1505.3,326.3,-0.7,1.8,2470.295,13.33,0.018,6.3
2020-03-19T00:19:03,42.805,6.029,0.043,0.022,-0.031,100.0,104.0,99.0,13.4,1505.3,325.8,-0.7,1.9,2470.302,13.33,0.048,62.9
2020-03-19T00:22:03,42.805,6.029,-0.038,0.019,-0.098,100.0,102.0,99.0,13.3,1505.3,323.5,-0.7,1.9,2470.24,13.33,0.042,296.6
2020-03-19T00:25:03,42.805,6.029,-0.01,0.027,-0.054,101.0,103.0,99.0,13.4,1505.3,326.8,-0.7,1.8,2470.26,13.33,0.028,339.7
2020-03-19T00:28:03,42.805,6.029,-0.045,0.009,-0.071,100.0,105.0,98.0,13.3,1505.3,325.8,-0.7,1.8,2470.26,13.33,0.045,281.3
2020-03-19T00:31:03,42.805,6.029,0.021,0.023,-0.028,101.0,104.0,99.0,13.4,1505.3,328.5,-0.7,1.8,2470.307,13.33,0.031,42.4
2020-03-19T00:34:03,42.805,6.029,0.01,0.018,-0.031,101.0,105.0,98.0,13.4,1505.3,323.7,-0.7,1.9,2470.303,13.33,0.02,29.1
2020-03-19T00:37:03,42.805,6.029,0.004,0.025,-0.039,103.0,105.0,98.0,13.3,1505.3,323.2,-0.7,1.9,2470.265,13.33,0.025,9.1
2020-03-19T00:40:03,42.805,6.029,0.009,0.03,-0.045,101.0,103.0,99.0,13.4,1505.3,326.4,-0.7,1.8,2470.243,13.33,0.031,16.7
2020-03-19T00:43:03,42.805,6.029,0.006,0.028,-0.04,100.0,103.0,99.0,13.3,1505.3,324.6,-0.7,1.8,2470.258,13.33,0.028,12.1
2020-03-19T00:46:03,42.805,6.029,0.016,0.019,-0.069,101.0,103.0,101.0,13.4,1505.3,326.6,-0.7,1.8,2470.314,13.33,0.024,40.1
2020-03-19T00:49:03,42.805,6.029,-0.014,0.009,-0.067,99.0,104.0,98.0,13.3,1505.3,326.5,-0.7,1.9,2470.299,13.33,0.016,302.7
2020-03-19T00:52:03,42.805,6.029,-0.031,0.032,-0.053,101.0,105.0,99.0,13.4,1505.3,325.4,-0.7,1.8,2470.306,13.33,0.044,315.9
2020-03-19T00:55:03,42.805,6.029,0.003,0.035,-0.018,100.0,105.0,100.0,13.4,1505.3,324.3,-0.7,1.9,2470.271,13.33,0.035,4.9
2020-03-19T00:58:03,42.805,6.029,-0.037,0.021,-0.1,101.0,106.0,99.0,13.4,1505.3,323.6,-0.7,1.9,2470.274,13.33,0.042,299.6
2020-03-19T01:04:03,42.805,6.029,-0.019,0.006,-0.05,101.0,104.0,100.0,13.4,1505.3,327.5,-0.7,1.8,2470.344,13.31,0.019,287.5
2020-03-19T01:07:04,42.805,6.029,-0.008,0.02,-0.033,101.0,103.0,99.0,13.4,1505.3,327.1,-0.7,1.8,2470.307,13.31,0.021,338.2
2020-03-19T01:10:03,42.805,6.029,0.002,0.032,-0.018,99.0,103.0,100.0,13.4,1505.3,324.2,-0.7,1.8,2470.31,13.32,0.032,3.6
2020-03-19T01:13:03,42.805,6.029,-0.018,0.022,-0.078,101.0,104.0,100.0,13.4,1505.3,325.7,-0.7,1.8,2470.25,13.32,0.028,320.7
2020-03-19T01:16:03,42.805,6.029,0.003,0.02,-0.047,102.0,105.0,98.0,13.4,1505.3,327.1,-0.7,1.8,2470.32,13.32,0.02,8.5
2020-03-19T01:19:03,42.805,6.029,-0.002,0.005,-0.087,101.0,105.0,99.0,13.4,1505.3,325.7,-0.7,1.8,2470.295,13.32,0.005,338.2
2020-03-19T01:22:03,42.805,6.029,0.019,0.015,-0.022,101.0,105.0,100.0,13.4,1505.3,324.9,-0.7,1.8,2470.319,13.33,0.024,51.7
2020-03-19T01:25:03,42.805,6.029,0.001,0.013,-0.013,102.0,103.0,100.0,13.4,1505.3,324.7,-0.7,1.9,2470.32,13.33,0.013,4.4
2020-03-19T01:28:03,42.805,6.029,0.026,0.011,-0.043,101.0,107.0,100.0,13.4,1505.3,325.6,-0.7,1.8,2470.312,13.33,0.028,67.1
2020-03-19T01:31:03,42.805,6.029,-0.018,0.017,-0.048,102.0,104.0,100.0,13.4,1505.3,328.1,-0.7,1.8,2470.317,13.33,0.024,313.4
2020-03-19T01:34:03,42.805,6.029,-0.028,0.017,-0.054,99.0,106.0,100.0,13.4,1505.3,324.4,-0.7,1.8,2470.337,13.33,0.032,301.3
2020-03-19T01:37:03,42.805,6.029,0.002,0.024,-0.039,100.0,106.0,100.0,13.4,1505.3,325.9,-0.7,1.8,2470.344,13.33,0.024,4.8
2020-03-19T01:40:03,42.805,6.029,-0.003,0.014,-0.064,102.0,104.0,100.0,13.4,1505.3,323.3,-0.7,1.8,2470.297,13.33,0.014,347.9
2020-03-19T01:43:03,42.805,6.029,-0.029,-0.006,-0.059,101.0,104.0,102.0,13.3,1505.3,328.4,-0.7,1.8,2470.269,13.33,0.029,258.3
2020-03-19T01:46:03,42.805,6.029,-0.037,0.023,-0.056,101.0,104.0,101.0,13.4,1505.3,324.4,-0.7,1.8,2470.289,13.33,0.043,301.9
2020-03-19T01:49:03,42.805,6.029,-0.012,0.012,-0.031,102.0,103.0,100.0,13.4,1505.3,323.3,-0.7,1.8,2470.292,13.33,0.016,315.0
2020-03-19T01:52:03,42.805,6.029,-0.009,0.005,-0.042,101.0,104.0,99.0,13.4,1505.3,326.7,-0.7,1.8,2470.277,13.33,0.01,299.1
2020-03-19T01:55:03,42.805,6.029,-0.045,0.019,-0.086,101.0,104.0,100.0,13.4,1505.3,325.0,-0.7,1.8,2470.341,13.33,0.048,292.9
2020-03-19T01:58:03,42.805,6.029,-0.024,0.007,-0.058,101.0,103.0,100.0,13.4,1505.3,324.5,-0.7,1.8,2470.297,13.33,0.025,286.3
2020-03-19T02:04:03,42.805,6.029,-0.033,-0.005,-0.056,102.0,103.0,100.0,13.4,1505.3,326.6,-0.7,1.8,2470.353,13.31,0.033,261.4
2020-03-19T02:07:03,42.805,6.029,-0.021,0.001,-0.094,102.0,105.0,99.0,13.3,1505.3,326.8,-0.7,1.8,2470.36,13.31,0.021,272.7
2020-03-19T02:10:03,42.805,6.029,-0.022,-0.002,-0.07,103.0,103.0,99.0,13.4,1505.3,323.4,-0.7,1.8,2470.345,13.32,0.022,264.8
2020-03-19T02:13:03,42.805,6.029,-0.042,0.006,-0.109,102.0,104.0,100.0,13.3,1505.3,323.0,-0.7,1.8,2470.335,13.32,0.042,278.1
2020-03-19T02:16:03,42.805,6.029,0.012,0.009,-0.01,101.0,104.0,100.0,13.4,1505.3,326.4,-0.7,1.8,2470.375,13.32,0.015,53.1
2020-03-19T02:19:03,42.805,6.029,-0.012,0.013,-0.047,101.0,105.0,100.0,13.4,1505.3,327.1,-0.7,1.8,2470.388,13.33,0.017,317.3
2020-03-19T02:22:03,42.805,6.029,-0.015,0.011,-0.062,101.0,105.0,99.0,13.4,1505.3,325.7,-0.7,1.8,2470.31,13.33,0.018,306.3
2020-03-19T02:25:03,42.805,6.029,-0.046,-0.002,-0.086,101.0,105.0,100.0,13.3,1505.3,325.9,-0.7,1.8,2470.336,13.33,0.046,267.5
2020-03-19T02:28:03,42.805,6.029,-0.025,0.017,-0.05,102.0,105.0,101.0,13.4,1505.3,326.1,-0.7,1.8,2470.314,13.33,0.03,304.2
2020-03-19T02:31:03,42.805,6.029,-0.036,0.023,-0.071,101.0,105.0,100.0,13.3,1505.3,326.7,-0.7,1.8,2470.365,13.33,0.042,302.6
2020-03-19T02:34:03,42.805,6.029,-0.046,0.009,-0.062,102.0,105.0,101.0,13.3,1505.3,326.9,-0.7,1.8,2470.363,13.33,0.046,281.1
2020-03-19T02:37:03,42.805,6.029,-0.026,0.011,-0.033,102.0,104.0,102.0,13.4,1505.3,326.5,-0.7,1.8,2470.355,13.33,0.028,292.9
2020-03-19T02:40:03,42.805,6.029,-0.019,0.012,-0.068,103.0,104.0,101.0,13.3,1505.3,325.0,-0.7,1.8,2470.351,13.33,0.022,302.3
2020-03-19T02:43:03,42.805,6.029,-0.024,0.011,-0.065,102.0,105.0,101.0,13.3,1505.3,326.4,-0.7,1.8,2470.311,13.33,0.026,294.6
2020-03-19T02:46:03,42.805,6.029,0.002,0.012,-0.012,103.0,103.0,100.0,13.4,1505.3,326.7,-0.7,1.8,2470.318,13.33,0.012,9.5
2020-03-19T02:49:03,42.805,6.029,-0.027,0.005,-0.073,102.0,104.0,100.0,13.4,1505.3,323.6,-0.7,1.9,2470.344,13.33,0.027,280.5
2020-03-19T02:52:03,42.805,6.029,-0.032,0.023,-0.047,103.0,104.0,100.0,13.3,1505.3,327.1,-0.7,1.8,2470.292,13.33,0.039,305.7
2020-03-19T02:55:03,42.805,6.029,-0.044,0.004,-0.049,103.0,106.0,100.0,13.3,1505.3,325.3,-0.7,1.8,2470.376,13.33,0.044,275.2
2020-03-19T02:58:03,42.805,6.029,-0.024,0.004,-0.039,102.0,106.0,100.0,13.4,1505.3,326.2,-0.7,1.8,2470.396,13.33,0.024,279.5
2020-03-19T03:04:03,42.805,6.029,-0.016,-0.002,-0.052,103.0,104.0,101.0,13.3,1505.3,325.6,-0.8,1.8,2470.428,13.31,0.016,262.9
2020-03-19T03:07:03,42.805,6.029,-0.015,0.012,-0.075,104.0,102.0,100.0,13.3,1505.3,328.4,-0.8,1.8,2470.394,13.31,0.019,308.7
2020-03-19T03:10:03,42.805,6.029,-0.022,-0.012,-0.034,101.0,105.0,101.0,13.3,1505.3,325.8,-0.7,1.8,2470.399,13.32,0.025,241.4
2020-03-19T03:13:03,42.805,6.029,-0.017,0.017,-0.012,101.0,107.0,102.0,13.3,1505.3,324.5,-0.7,1.8,2470.365,13.32,0.024,315.0
2020-03-19T03:16:03,42.805,6.029,-0.038,0.013,-0.031,101.0,104.0,100.0,13.3,1505.3,326.7,-0.7,1.9,2470.4,13.32,0.04,288.9
2020-03-19T03:19:03,42.805,6.029,-0.013,0.01,-0.048,103.0,104.0,100.0,13.4,1505.3,325.3,-0.7,1.8,2470.392,13.32,0.016,307.6
2020-03-19T03:22:03,42.805,6.029,0.003,-0.002,-0.034,104.0,104.0,101.0,13.4,1505.3,323.4,-0.7,1.8,2470.367,13.32,0.003,123.7
2020-03-19T03:25:03,42.805,6.029,-0.024,-0.023,-0.037,103.0,105.0,101.0,13.3,1505.3,325.2,-0.7,1.8,2470.378,13.33,0.033,226.2
2020-03-19T03:28:03,42.805,6.029,-0.017,0.013,-0.028,102.0,104.0,102.0,13.3,1505.3,326.9,-0.7,1.8,2470.398,13.33,0.021,307.4
2020-03-19T03:31:03,42.805,6.029,-0.032,-0.001,-0.069,104.0,105.0,101.0,13.4,1505.3,323.5,-0.7,1.8,2470.402,13.33,0.032,268.2
2020-03-19T03:34:03,42.805,6.029,-0.006,-0.002,-0.028,103.0,105.0,101.0,13.4,1505.3,327.6,-0.7,1.8,2470.406,13.33,0.006,251.6
2020-03-19T03:37:03,42.805,6.029,-0.025,-0.003,-0.06,104.0,105.0,103.0,13.4,1505.3,325.2,-0.7,1.8,2470.394,13.33,0.025,263.2
2020-03-19T03:40:03,42.805,6.029,-0.018,0.01,-0.07,102.0,105.0,102.0,13.3,1505.3,327.2,-0.7,1.8,2470.382,13.33,0.02,299.1
2020-03-19T03:43:03,42.805,6.029,0.0,-0.003,-0.027,103.0,105.0,100.0,13.4,1505.3,323.3,-0.7,1.8,2470.377,13.33,0.003,180.0
2020-03-19T03:46:03,42.805,6.029,-0.009,-0.009,-0.066,103.0,105.0,101.0,13.4,1505.3,327.3,-0.7,1.8,2470.4,13.33,0.012,225.0
2020-03-19T03:49:03,42.805,6.029,-0.007,0.01,-0.062,103.0,106.0,101.0,13.4,1505.3,326.5,-0.7,1.8,2470.373,13.33,0.012,325.0
2020-03-19T03:52:03,42.805,6.029,-0.026,-0.011,-0.031,103.0,105.0,104.0,13.3,1505.3,324.0,-0.7,1.8,2470.408,13.33,0.028,247.1
2020-03-19T03:55:03,42.805,6.029,-0.019,-0.001,-0.043,103.0,106.0,101.0,13.4,1505.3,326.6,-0.7,1.8,2470.408,13.33,0.019,267.0
2020-03-19T03:58:03,42.805,6.029,0.003,0.012,-0.03,103.0,104.0,101.0,13.3,1505.3,326.9,-0.7,1.9,2470.402,13.32,0.012,14.0
2020-03-19T04:04:03,42.805,6.029,-0.017,0.006,-0.057,104.0,104.0,101.0,13.3,1505.3,326.4,-0.7,1.8,2470.417,13.31,0.018,289.4
2020-03-19T04:07:03,42.805,6.029,-0.007,0.008,-0.03,105.0,107.0,101.0,13.3,1505.3,327.9,-0.7,1.8,2470.412,13.31,0.01,318.8
2020-03-19T04:10:03,42.805,6.029,-0.041,-0.007,-0.07,103.0,105.0,101.0,13.3,1505.3,325.9,-0.7,1.8,2470.42,13.32,0.041,260.3
2020-03-19T04:13:03,42.805,6.029,0.0,0.011,-0.009,103.0,104.0,101.0,13.4,1505.3,327.6,-0.7,1.9,2470.435,13.32,0.011,0.0
2020-03-19T04:16:03,42.805,6.029,-0.011,-0.011,-0.026,104.0,104.0,100.0,13.3,1505.3,327.0,-0.7,1.9,2470.385,13.32,0.015,225.0
2020-03-19T04:19:03,42.805,6.029,-0.01,-0.003,-0.052,104.0,105.0,101.0,13.3,1505.3,327.8,-0.7,1.8,2470.423,13.32,0.01,253.3
2020-03-19T04:22:03,42.805,6.029,0.002,-0.003,-0.052,104.0,106.0,102.0,13.4,1505.3,326.5,-0.7,1.8,2470.418,13.32,0.003,146.3
2020-03-19T04:25:03,42.805,6.029,-0.022,0.0,-0.037,104.0,106.0,102.0,13.4,1505.3,326.0,-0.7,1.8,2470.406,13.32,0.022,270.0
2020-03-19T04:28:03,42.805,6.029,-0.01,0.02,-0.045,104.0,105.0,100.0,13.4,1505.3,325.9,-0.7,1.8,2470.397,13.33,0.022,333.4
2020-03-19T04:31:03,42.805,6.029,-0.022,-0.014,-0.051,103.0,104.0,101.0,13.4,1505.3,327.3,-0.7,1.9,2470.381,13.33,0.026,237.5
2020-03-19T04:34:03,42.805,6.029,-0.034,-0.001,-0.044,104.0,105.0,101.0,13.4,1505.3,322.9,-0.7,1.9,2470.387,13.32,0.034,268.3
2020-03-19T04:37:03,42.805,6.029,-0.033,-0.017,-0.071,105.0,105.0,101.0,13.3,1505.3,323.6,-0.7,1.8,2470.404,13.32,0.037,242.7
2020-03-19T04:40:03,42.805,6.029,-0.019,-0.002,-0.043,104.0,106.0,101.0,13.4,1505.3,324.0,-0.7,1.8,2470.419,13.32,0.019,264.0
2020-03-19T04:43:03,42.805,6.029,-0.022,0.002,-0.026,104.0,105.0,100.0,13.3,1505.3,325.8,-0.7,1.8,2470.345,13.33,0.022,275.2
2020-03-19T04:46:03,42.805,6.029,-0.034,-0.003,-0.027,104.0,106.0,102.0,13.3,1505.3,324.7,-0.7,1.8,2470.375,13.33,0.034,265.0
2020-03-19T04:49:03,42.805,6.029,-0.005,-0.005,-0.011,103.0,106.0,101.0,13.3,1505.3,327.2,-0.7,1.8,2470.397,13.33,0.007,225.0
2020-03-19T04:52:03,42.805,6.029,0.0,0.015,-0.052,104.0,106.0,100.0,13.4,1505.3,324.5,-0.7,1.8,2470.409,13.33,0.015,0.0
2020-03-19T04:55:03,42.805,6.029,-0.028,-0.008,-0.023,103.0,105.0,101.0,13.4,1505.3,325.5,-0.7,1.9,2470.42,13.33,0.029,254.1
2020-03-19T04:58:03,42.805,6.029,-0.051,0.013,-0.056,104.0,106.0,101.0,13.4,1505.3,326.4,-0.7,1.8,2470.374,13.33,0.052,284.3
2020-03-19T05:04:03,42.805,6.029,-0.037,-0.006,-0.055,105.0,106.0,102.0,13.4,1505.3,324.4,-0.8,1.8,2470.405,13.31,0.037,260.8
2020-03-19T05:07:03,42.805,6.029,-0.015,0.0,-0.067,104.0,105.0,101.0,13.3,1505.3,323.7,-0.7,1.8,2470.395,13.31,0.015,270.0
2020-03-19T05:10:03,42.805,6.029,-0.007,0.006,-0.032,105.0,106.0,101.0,13.4,1505.3,325.4,-0.7,1.8,2470.392,13.32,0.009,310.6
2020-03-19T05:13:03,42.805,6.029,-0.028,0.003,-0.031,104.0,105.0,102.0,13.4,1505.3,327.6,-0.7,1.8,2470.436,13.32,0.028,276.1
2020-03-19T05:16:03,42.805,6.029,-0.055,-0.017,-0.065,103.0,104.0,101.0,13.4,1505.3,324.2,-0.7,1.8,2470.424,13.32,0.057,252.8
2020-03-19T05:19:03,42.805,6.029,-0.043,-0.011,-0.07,103.0,106.0,101.0,13.3,1505.3,325.0,-0.7,1.8,2470.412,13.32,0.044,255.7
2020-03-19T05:22:03,42.805,6.029,-0.025,0.009,-0.028,103.0,105.0,101.0,13.3,1505.3,327.0,-0.7,1.8,2470.384,13.32,0.026,289.8
2020-03-19T05:25:03,42.805,6.029,-0.039,-0.007,-0.032,103.0,104.0,102.0,13.3,1505.3,326.7,-0.7,1.8,2470.437,13.32,0.039,259.8
2020-03-19T05:28:03,42.805,6.029,-0.047,0.013,-0.024,103.0,107.0,101.0,13.4,1505.3,323.6,-0.7,1.8,2470.363,13.32,0.048,285.5
2020-03-19T05:31:03,42.805,6.029,-0.028,0.005,-0.051,104.0,104.0,101.0,13.3,1505.3,322.6,-0.7,1.8,2470.384,13.32,0.028,280.1
2020-03-19T05:34:03,42.805,6.029,-0.02,0.007,-0.052,104.0,105.0,101.0,13.3,1505.3,322.8,-0.7,1.8,2470.396,13.32,0.021,289.3
2020-03-19T05:37:03,42.805,6.029,-0.021,0.0,-0.04,104.0,104.0,100.0,13.3,1505.3,324.3,-0.7,1.8,2470.412,13.32,0.021,270.0
2020-03-19T05:40:03,42.805,6.029,-0.048,0.006,-0.039,105.0,106.0,101.0,13.4,1505.3,327.5,-0.7,1.8,2470.346,13.32,0.048,277.1
2020-03-19T05:43:03,42.805,6.029,-0.046,-0.003,-0.07,106.0,106.0,101.0,13.4,1505.3,328.2,-0.7,1.9,2470.392,13.32,0.046,266.3
2020-03-19T05:46:03,42.805,6.029,-0.028,0.001,-0.038,104.0,105.0,101.0,13.3,1505.3,328.2,-0.7,1.9,2470.387,13.32,0.028,272.0
2020-03-19T05:49:03,42.805,6.029,-0.044,0.009,-0.07,104.0,106.0,102.0,13.4,1505.3,324.0,-0.7,1.9,2470.418,13.32,0.044,281.6
2020-03-19T05:52:03,42.805,6.029,-0.036,-0.015,-0.038,102.0,105.0,102.0,13.4,1505.3,324.7,-0.7,1.8,2470.362,13.32,0.039,247.4
2020-03-19T05:55:03,42.805,6.029,-0.013,0.003,-0.019,104.0,105.0,101.0,13.4,1505.3,327.4,-0.7,1.8,2470.394,13.32,0.013,283.0
2020-03-19T05:58:03,42.805,6.029,0.005,-0.001,-0.033,104.0,105.0,101.0,13.4,1505.3,326.7,-0.7,1.8,2470.387,13.32,0.005,101.3
2020-03-19T06:04:03,42.805,6.029,-0.034,0.014,-0.052,104.0,106.0,101.0,13.4,1505.2,324.0,-0.7,1.9,2470.447,13.3,0.036,292.4
2020-03-19T06:07:03,42.805,6.029,-0.05,0.0,-0.079,105.0,107.0,101.0,13.4,1505.3,325.3,-0.7,1.9,2470.449,13.31,0.05,270.0
2020-03-19T06:10:03,42.805,6.029,-0.027,-0.015,-0.042,104.0,105.0,102.0,13.4,1505.3,327.2,-0.7,1.8,2470.425,13.32,0.03,240.9
2020-03-19T06:13:03,42.805,6.029,-0.027,0.012,-0.043,104.0,105.0,101.0,13.3,1505.3,325.0,-0.7,1.9,2470.389,13.32,0.029,294.0
2020-03-19T06:16:03,42.805,6.029,-0.043,0.016,-0.051,104.0,105.0,102.0,13.4,1505.3,327.0,-0.7,1.8,2470.384,13.32,0.045,290.4
2020-03-19T06:19:03,42.805,6.029,-0.01,-0.007,-0.021,104.0,105.0,101.0,13.3,1505.3,326.8,-0.7,1.8,2470.385,13.32,0.012,235.0
2020-03-19T06:22:03,42.805,6.029,-0.037,-0.014,-0.045,104.0,105.0,101.0,13.3,1505.3,323.1,-0.7,1.8,2470.387,13.32,0.039,249.3
2020-03-19T06:25:03,42.805,6.029,-0.005,0.004,-0.01,105.0,105.0,101.0,13.3,1505.3,323.3,-0.7,1.8,2470.394,13.32,0.006,308.7
2020-03-19T06:28:03,42.805,6.029,-0.004,0.011,-0.019,104.0,106.0,102.0,13.4,1505.3,328.0,-0.7,1.9,2470.425,13.32,0.011,340.0
2020-03-19T06:31:03,42.805,6.029,-0.032,0.005,-0.013,104.0,105.0,102.0,13.4,1505.3,325.8,-0.7,1.8,2470.408,13.32,0.032,278.9
2020-03-19T06:34:03,42.805,6.029,-0.04,0.016,-0.05,103.0,105.0,102.0,13.4,1505.3,325.1,-0.7,1.8,2470.425,13.32,0.043,291.8
2020-03-19T06:37:03,42.805,6.029,0.002,0.001,-0.025,104.0,105.0,101.0,13.4,1505.3,324.5,-0.7,1.9,2470.413,13.32,0.002,63.4
2020-03-19T06:40:03,42.805,6.029,-0.019,-0.003,-0.052,103.0,105.0,101.0,13.3,1505.3,328.1,-0.7,1.8,2470.437,13.32,0.019,261.0
2020-03-19T06:43:03,42.805,6.029,-0.051,0.016,-0.045,105.0,106.0,101.0,13.4,1505.3,327.2,-0.7,1.8,2470.373,13.32,0.053,287.4
2020-03-19T06:46:03,42.805,6.029,-0.021,-0.001,-0.039,103.0,106.0,101.0,13.4,1505.3,326.9,-0.7,1.8,2470.368,13.32,0.021,267.3
2020-03-19T06:49:03,42.805,6.029,-0.033,0.002,-0.036,108.0,105.0,101.0,13.4,1505.3,323.5,-0.7,1.8,2470.389,13.32,0.033,273.5
2020-03-19T06:52:03,42.805,6.029,-0.045,0.008,-0.07,104.0,107.0,101.0,13.4,1505.3,327.8,-0.7,1.8,2470.394,13.32,0.045,280.1
2020-03-19T06:55:03,42.805,6.029,-0.032,0.01,-0.056,105.0,106.0,102.0,13.4,1505.3,325.2,-0.7,1.9,2470.384,13.32,0.033,287.4
2020-03-19T06:58:03,42.805,6.029,-0.008,-0.014,-0.067,104.0,107.0,101.0,13.4,1505.3,323.5,-0.7,1.9,2470.375,13.33,0.016,209.7
2020-03-19T07:01:03,42.805,6.029,-0.018,0.006,-0.035,104.0,107.0,100.0,13.4,1505.3,325.4,-0.7,1.8,2470.36,13.33,0.018,288.4
2020-03-19T07:04:03,42.805,6.029,-0.03,0.028,-0.046,104.0,106.0,101.0,13.4,1505.3,328.3,-0.7,1.8,2470.354,13.32,0.041,313.0
2020-03-19T07:07:03,42.805,6.029,-0.032,0.01,-0.025,104.0,107.0,101.0,13.4,1505.3,327.2,-0.7,1.8,2470.353,13.33,0.033,287.4
2020-03-19T07:10:03,42.805,6.029,-0.061,0.025,-0.071,104.0,107.0,101.0,13.3,1505.3,326.4,-0.7,1.8,2470.357,13.33,0.065,292.3
2020-03-19T07:13:03,42.805,6.029,0.0,-0.005,0.0,103.0,108.0,101.0,13.4,1505.3,323.1,-0.7,1.8,2470.373,13.33,0.005,180.0
2020-03-19T07:16:03,42.805,6.029,-0.03,0.033,-0.054,104.0,106.0,102.0,13.4,1505.3,324.6,-0.7,1.8,2470.376,13.33,0.044,317.7
2020-03-19T07:19:03,42.805,6.029,-0.025,0.02,-0.03,103.0,106.0,102.0,13.3,1505.3,327.4,-0.7,1.9,2470.401,13.33,0.032,308.7
2020-03-19T07:22:03,42.805,6.029,-0.023,0.034,-0.035,105.0,105.0,102.0,13.4,1505.3,326.7,-0.7,1.8,2470.355,13.33,0.041,325.9
2020-03-19T07:25:03,42.805,6.029,-0.02,0.012,-0.001,105.0,106.0,102.0,13.3,1505.3,328.2,-0.7,1.8,2470.316,13.33,0.023,301.0
2020-03-19T07:28:03,42.805,6.029,-0.063,-0.007,-0.069,104.0,107.0,102.0,13.4,1505.3,326.1,-0.7,1.8,2470.357,13.33,0.063,263.7
2020-03-19T07:31:03,42.805,6.029,-0.006,0.003,-0.035,105.0,106.0,101.0,13.4,1505.3,325.6,-0.7,1.8,2470.355,13.33,0.006,296.6
2020-03-19T07:34:03,42.805,6.029,-0.032,0.006,-0.061,104.0,106.0,102.0,13.4,1505.3,324.5,-0.7,1.8,2470.332,13.33,0.032,280.6
2020-03-19T07:37:03,42.805,6.029,-0.047,0.011,-0.038,103.0,106.0,101.0,13.4,1505.3,324.8,-0.7,1.8,2470.317,13.33,0.048,283.2
2020-03-19T07:40:03,42.805,6.029,-0.025,0.016,-0.05,104.0,107.0,101.0,13.4,1505.3,324.3,-0.7,1.8,2470.328,13.33,0.029,302.6
2020-03-19T07:43:03,42.805,6.029,-0.024,0.008,-0.048,105.0,107.0,102.0,13.4,1505.3,326.9,-0.7,1.8,2470.343,13.33,0.025,288.4
2020-03-19T07:46:03,42.805,6.029,-0.047,0.014,0.0,104.0,106.0,101.0,13.4,1505.3,323.8,-0.7,1.8,2470.278,13.33,0.049,286.6
2020-03-19T07:49:03,42.805,6.029,-0.04,0.027,-0.051,104.0,106.0,102.0,13.4,1505.3,325.7,-0.7,1.8,2470.345,13.33,0.048,304.0
2020-03-19T07:52:03,42.805,6.029,-0.003,0.001,-0.021,103.0,106.0,101.0,13.4,1505.3,327.1,-0.7,1.8,2470.342,13.33,0.003,288.4
2020-03-19T07:55:03,42.805,6.029,-0.017,0.0,-0.057,104.0,107.0,101.0,13.4,1505.3,327.2,-0.7,1.8,2470.326,13.33,0.017,270.0
2020-03-19T07:58:03,42.805,6.029,-0.04,0.006,-0.045,104.0,106.0,101.0,13.4,1505.3,326.8,-0.7,1.8,2470.351,13.33,0.04,278.5
2020-03-19T08:04:03,42.805,6.029,-0.037,0.006,-0.047,105.0,106.0,100.0,13.4,1505.3,325.7,-0.8,1.9,2470.385,13.31,0.037,279.2
2020-03-19T08:07:03,42.805,6.029,-0.006,0.016,-0.02,103.0,107.0,102.0,13.4,1505.3,326.5,-0.7,1.8,2470.345,13.31,0.017,339.4
2020-03-19T08:10:03,42.805,6.029,-0.01,0.006,-0.041,103.0,106.0,102.0,13.4,1505.3,322.8,-0.7,1.8,2470.343,13.32,0.011,301.0
2020-03-19T08:13:03,42.805,6.029,-0.036,0.005,-0.036,104.0,105.0,102.0,13.4,1505.3,328.0,-0.7,1.8,2470.336,13.32,0.036,277.9
2020-03-19T08:16:03,42.805,6.029,-0.022,0.03,-0.026,105.0,106.0,101.0,13.4,1505.3,324.8,-0.7,1.8,2470.356,13.32,0.037,323.7
2020-03-19T08:19:03,42.805,6.029,-0.042,0.018,-0.082,104.0,104.0,102.0,13.4,1505.3,326.8,-0.7,1.8,2470.336,13.32,0.045,293.2
2020-03-19T08:22:03,42.805,6.029,-0.013,0.033,-0.008,104.0,107.0,101.0,13.4,1505.3,326.8,-0.7,1.8,2470.402,13.32,0.035,338.5
2020-03-19T08:25:03,42.805,6.029,-0.006,0.021,-0.023,104.0,107.0,101.0,13.4,1505.3,326.7,-0.7,1.9,2470.347,13.33,0.021,344.1
2020-03-19T08:28:03,42.805,6.029,0.021,0.016,-0.018,104.0,106.0,101.0,13.4,1505.3,324.1,-0.7,1.8,2470.335,13.33,0.026,52.7
2020-03-19T08:31:03,42.805,6.029,-0.056,0.02,-0.067,104.0,106.0,101.0,13.3,1505.3,323.3,-0.7,1.8,2470.297,13.33,0.059,289.6
2020-03-19T08:34:03,42.805,6.029,-0.026,0.018,-0.041,105.0,109.0,101.0,13.4,1505.3,326.4,-0.7,1.8,2470.348,13.33,0.031,304.7
2020-03-19T08:37:03,42.805,6.029,-0.019,0.016,-0.016,103.0,106.0,101.0,13.4,1505.3,328.5,-0.7,1.8,2470.355,13.33,0.024,310.1
2020-03-19T08:40:03,42.805,6.029,-0.024,0.007,-0.045,104.0,107.0,101.0,13.4,1505.3,327.4,-0.7,1.8,2470.303,13.33,0.025,286.3
2020-03-19T08:43:03,42.805,6.029,-0.052,0.011,-0.025,103.0,108.0,102.0,13.4,1505.3,326.4,-0.7,1.8,2470.307,13.33,0.053,281.9
2020-03-19T08:46:03,42.805,6.029,0.014,0.007,-0.026,104.0,108.0,101.0,13.4,1505.3,326.7,-0.7,1.8,2470.315,13.33,0.015,63.4
2020-03-19T08:49:03,42.805,6.029,-0.01,0.01,-0.062,105.0,108.0,101.0,13.3,1505.3,323.1,-0.7,1.8,2470.32,13.33,0.014,315.0
2020-03-19T08:52:03,42.805,6.029,-0.037,0.013,-0.012,104.0,109.0,101.0,13.4,1505.3,323.8,-0.7,1.8,2470.319,13.33,0.039,289.4
2020-03-19T08:55:03,42.805,6.029,0.006,0.014,-0.022,105.0,108.0,102.0,13.3,1505.3,324.9,-0.7,1.8,2470.344,13.33,0.015,23.2
2020-03-19T08:58:03,42.805,6.029,-0.012,0.02,-0.027,104.0,107.0,102.0,13.4,1505.3,327.5,-0.7,1.8,2470.322,13.33,0.023,329.0
2020-03-19T09:04:03,42.805,6.029,-0.016,0.01,-0.025,104.0,110.0,101.0,13.4,1505.3,324.2,-0.8,1.8,2470.301,13.31,0.018,302.0
2020-03-19T09:07:03,42.805,6.029,-0.021,-0.003,-0.046,104.0,108.0,101.0,13.4,1505.3,324.6,-0.7,1.9,2470.411,13.32,0.021,261.9
2020-03-19T09:10:03,42.805,6.029,-0.006,0.013,-0.027,104.0,108.0,102.0,13.3,1505.3,322.9,-0.7,1.9,2470.346,13.32,0.014,335.2
2020-03-19T09:13:03,42.805,6.029,-0.001,0.012,-0.029,104.0,107.0,101.0,13.4,1505.3,325.0,-0.7,1.9,2470.336,13.32,0.012,355.2
2020-03-19T09:16:03,42.805,6.029,-0.015,0.001,-0.015,105.0,108.0,101.0,13.4,1505.3,328.8,-0.7,1.8,2470.312,13.33,0.015,273.8
2020-03-19T09:19:03,42.805,6.029,-0.006,0.011,-0.06,105.0,106.0,101.0,13.4,1505.3,327.2,-0.7,1.8,2470.346,13.33,0.012,331.4
2020-03-19T09:22:03,42.805,6.029,-0.003,0.013,-0.032,105.0,107.0,100.0,13.4,1505.3,327.2,-0.7,1.8,2470.301,13.33,0.013,347.0
2020-03-19T09:25:03,42.805,6.029,-0.04,-0.001,-0.018,104.0,108.0,102.0,13.4,1505.3,324.5,-0.7,1.8,2470.365,13.33,0.04,268.6
2020-03-19T09:28:03,42.805,6.029,0.0,0.006,-0.029,104.0,110.0,102.0,13.4,1505.3,326.9,-0.7,1.8,2470.334,13.33,0.006,0.0
2020-03-19T09:31:03,42.805,6.029,-0.034,0.006,-0.049,103.0,106.0,102.0,13.3,1505.3,324.6,-0.7,1.8,2470.324,13.33,0.034,280.0
2020-03-19T09:34:03,42.805,6.029,-0.006,0.005,-0.011,105.0,108.0,102.0,13.4,1505.3,323.5,-0.7,1.8,2470.29,13.33,0.007,309.8
2020-03-19T09:37:03,42.805,6.029,0.0,0.008,-0.022,104.0,108.0,103.0,13.3,1505.3,327.4,-0.7,1.8,2470.373,13.33,0.008,0.0
2020-03-19T09:40:03,42.805,6.029,0.0,0.03,-0.04,106.0,107.0,101.0,13.4,1505.3,327.6,-0.7,1.8,2470.358,13.33,0.03,0.0
2020-03-19T09:43:03,42.805,6.029,0.002,0.016,-0.012,105.0,109.0,101.0,13.4,1505.3,324.2,-0.7,1.8,2470.285,13.33,0.016,7.1
2020-03-19T09:46:03,42.805,6.029,0.006,0.028,0.014,104.0,108.0,102.0,13.4,1505.3,326.1,-0.7,1.8,2470.3,13.33,0.028,12.1
2020-03-19T09:49:03,42.805,6.029,0.012,0.021,-0.002,105.0,108.0,102.0,13.4,1505.3,323.9,-0.7,1.8,2470.295,13.33,0.024,29.7
2020-03-19T09:52:03,42.805,6.029,-0.02,0.01,-0.018,104.0,109.0,102.0,13.4,1505.3,324.3,-0.7,1.9,2470.309,13.33,0.022,296.6